Weather History for Christchurch, New Zealand

Change the Weather History Date:

Thursday, May 23, 2013

  Actual Average Record
Temperature  
Mean Temperature 48 °F -  
Max Temperature 51 °F 55 °F 71 °F (2007)
Min Temperature 44 °F 39 °F 24 °F (2001)
Degree Days  
Heating Degree Days 18    
Moisture  
Dew Point 44 °F    
Average Humidity 83    
Maximum Humidity 100    
Minimum Humidity 58    
Precipitation  
Precipitation 0.00 in - - ()
Sea Level Pressure  
Sea Level Pressure 29.60 in    
Wind  
Wind Speed 13 mph ()    
Max Wind Speed 21 mph    
Max Gust Speed 32 mph    
Visibility 6.0 miles    
Events Rain    
Averages and records for this station are not official NWS values.
T = Trace of Precipitation, MM = Missing Value Source: Averaged Metar Reports

Daily Weather History Graph

Daily Weather History Graph

Search for Another Location

Airport:

Trip Planner

Search our weather history database for the weather conditions in past years. The results will help you decide how hot, cold, wet, or windy it might be!

Date:

Astronomy

May. 23, 2013 Rise Set
Actual Time 7:44 AM NZST 5:08 PM NZST
Civil Twilight 7:12 AM NZST 5:39 PM NZST
Nautical Twilight 6:37 AM NZST 6:14 PM NZST
Astronomical Twilight 6:03 AM NZST 6:49 PM NZST
Moon 3:38 PM NZST (5/23) 4:55 AM NZST (5/23)
Length of Visible Light 10h 26m
Length of Day
9h 23m
Waxing Gibbous, 93% of the Moon is Illuminated
May 23
Waxing Gibbous
May 25
Full
Jun 1
Last Quarter
Jun 9
New
Jun 17
First Quarter

Hourly Weather History & Observations

Time (NZST) Temp. Windchill Dew Point Humidity Pressure Visibility Wind Dir Wind Speed Gust Speed Precip Events Conditions
12:00 AM 51.8 °F - 50.0 °F 94% 29.42 in 6.2 mi SW 10.4 mph - N/A   Mostly Cloudy
1:00 AM 51.8 °F - 50.0 °F 94% 29.42 in 6.2 mi SW 13.8 mph - N/A   Mostly Cloudy
2:00 AM 50.0 °F - 48.2 °F 94% 29.42 in 6.2 mi SW 18.4 mph - N/A Rain Rain Showers
3:00 AM 50.0 °F - 48.2 °F 94% 29.42 in 3.7 mi SW 20.7 mph 32.2 mph N/A Rain Light Rain
3:05 AM 50.0 °F - 48.2 °F 94% 29.42 in 6.2 mi SW 19.6 mph 32.2 mph N/A Rain Rain Showers
4:00 AM 48.2 °F - 48.2 °F 100% 29.44 in 4.3 mi SW 19.6 mph - N/A Rain Rain
5:00 AM 50.0 °F - 48.2 °F 94% 29.44 in 6.2 mi SW 17.3 mph - N/A Rain Rain Showers
6:00 AM 50.0 °F - 48.2 °F 94% 29.47 in 6.2 mi SW 19.6 mph - N/A Rain Rain Showers
7:00 AM 48.2 °F - 46.4 °F 93% 29.50 in 6.2 mi SSW 18.4 mph - N/A Rain Rain Showers
8:00 AM 48.2 °F - 44.6 °F 87% 29.53 in 6.2 mi SSW 16.1 mph - N/A   Mostly Cloudy
9:00 AM 48.2 °F - 44.6 °F 87% 29.56 in 6.2 mi SW 13.8 mph - N/A Rain Rain Showers
10:00 AM 50.0 °F - 42.8 °F 76% 29.59 in 6.2 mi SSW 17.3 mph 28.8 mph N/A   Mostly Cloudy
11:00 AM 50.0 °F - 42.8 °F 76% 29.62 in 6.2 mi SSW 18.4 mph - N/A   Mostly Cloudy
12:00 PM 50.0 °F - 44.6 °F 82% 29.62 in 6.2 mi SW 13.8 mph - N/A   Mostly Cloudy
1:00 PM 50.0 °F - 41.0 °F 71% 29.62 in 6.2 mi SW 18.4 mph - N/A   Mostly Cloudy
2:00 PM 51.8 °F - 39.2 °F 62% 29.62 in 6.2 mi SSW 19.6 mph - N/A   Mostly Cloudy
3:00 PM 51.8 °F - 37.4 °F 58% 29.65 in 6.2 mi SSW 16.1 mph - N/A   Scattered Clouds
4:00 PM 51.8 °F - 39.2 °F 62% 29.68 in 6.2 mi SW 13.8 mph - N/A   Scattered Clouds
5:00 PM 50.0 °F - 42.8 °F 76% 29.71 in 6.2 mi South 13.8 mph - N/A Rain Rain Showers
6:00 PM 48.2 °F - 42.8 °F 82% 29.74 in 6.2 mi SSW 12.7 mph - N/A Rain Light Rain
7:00 PM 46.4 °F 43.5 °F 41.0 °F 81% 29.77 in 6.2 mi SW 5.8 mph - N/A   Mostly Cloudy
8:00 PM 44.6 °F 41.4 °F 39.2 °F 81% 29.80 in - West 5.8 mph - N/A   Clear
9:00 PM 44.6 °F 40.7 °F 41.0 °F 87% 29.80 in 6.2 mi West 6.9 mph - N/A   Mostly Cloudy
10:00 PM 46.4 °F 44.3 °F 41.0 °F 81% 29.86 in 6.2 mi West 4.6 mph - N/A   Mostly Cloudy
11:00 PM 46.4 °F 43.5 °F 41.0 °F 81% 29.86 in 6.2 mi West 5.8 mph - N/A   Mostly Cloudy